Shungnak AP, Shungnak, AK, AK

8:01 PM AKST on December 09, 2019 (GMT -0900)
Shungnak AP, Shungnak, AK

Weather History for PAGH - October, 2019

Change the Weather History Date:

Wednesday, October 16, 2019

  Actual Average (PAFM) Record (PAFM)
Temperature  
Mean Temperature 24 °F -  
Max Temperature 28 °F 22 °F 44 °F (2013)
Min Temperature 21 °F 14 °F -5 °F (2008)
Degree Days  
Heating Degree Days 40    
Moisture  
Dew Point 11 °F    
Average Humidity 54    
Maximum Humidity 68    
Minimum Humidity 45    
Precipitation  
Precipitation 0.00 in - - ()
Sea Level Pressure  
Sea Level Pressure 29.42 in    
Wind  
Wind Speed 15 mph (East)    
Max Wind Speed 22 mph    
Max Gust Speed 29 mph    
Visibility 10 miles    
Events      
Averages and records for this station are not official NWS values.
T = Trace of Precipitation, MM = Missing Value Source: NWS Daily Summary

Daily Weather History Graph

Daily Weather History Graph

Search for Another Location

Airport or City:

Astronomy

Oct. 16, 2019 Rise Set
Actual Time 9:31 AM AKDT 6:55 PM AKDT
Civil Twilight 8:37 AM AKDT 7:49 PM AKDT
Nautical Twilight 7:35 AM AKDT 8:50 PM AKDT
Astronomical Twilight 6:32 AM AKDT 9:53 PM AKDT
Moon 7:41 PM AKDT (10/16) 1:20 PM AKDT (10/16)
Length of Visible Light 11h 12m
Length of Day
9h 23m
Waning Gibbous, 92% of the Moon is Illuminated
Oct 16
Waning Gibbous
Oct 21
Last Quarter
Oct 27
New
Nov 4
First Quarter
Nov 12
Full

Hourly Weather History & Observations

Time (AKDT) Temp. Windchill Dew Point Humidity Pressure Visibility Wind Dir Wind Speed Gust Speed Precip Events Conditions
12:56 AM 28.9 °F 18.2 °F 10.0 °F 45% 29.49 in 10.0 mi ESE 13.8 mph 20.7 mph N/A   Clear
1:56 AM 28.0 °F 16.5 °F 10.9 °F 49% 29.49 in 10.0 mi East 15.0 mph - N/A   Clear
2:56 AM 27.0 °F 17.3 °F 10.0 °F 49% 29.49 in 10.0 mi East 10.4 mph - N/A   Clear
3:56 AM 27.0 °F 15.6 °F 10.0 °F 49% 29.48 in 10.0 mi East 13.8 mph - N/A   Clear
4:56 AM 26.1 °F 12.7 °F 10.0 °F 51% 29.45 in 10.0 mi East 18.4 mph - N/A   Clear
5:56 AM 25.0 °F 11.3 °F 10.0 °F 53% 29.45 in 10.0 mi East 18.4 mph - N/A   Clear
6:56 AM 24.1 °F 11.0 °F 10.0 °F 55% 29.45 in 10.0 mi East 16.1 mph - N/A   Clear
7:56 AM 23.0 °F 8.7 °F 9.0 °F 55% 29.45 in 10.0 mi East 18.4 mph - N/A   Clear
8:56 AM 23.0 °F 8.3 °F 9.0 °F 55% 29.44 in 10.0 mi East 19.6 mph 24.2 mph N/A   Clear
9:56 AM 21.9 °F 9.2 °F 9.0 °F 58% 29.43 in 10.0 mi East 13.8 mph - N/A   Clear
10:56 AM 23.0 °F 10.1 °F 10.0 °F 58% 29.43 in 10.0 mi ESE 15.0 mph - N/A   Clear
11:56 AM 24.1 °F 11.5 °F 10.0 °F 55% 29.42 in 10.0 mi ESE 15.0 mph - N/A   Clear
1:56 PM 26.1 °F 14.0 °F 10.0 °F 51% 29.41 in 10.0 mi East 15.0 mph - N/A   Clear
2:56 PM 26.1 °F 12.3 °F 10.0 °F 51% 29.39 in 10.0 mi East 19.6 mph - N/A   Clear
3:56 PM 27.0 °F 13.5 °F 10.9 °F 51% 29.37 in 10.0 mi East 19.6 mph 25.3 mph N/A   Clear
4:56 PM 28.0 °F 14.3 °F 12.0 °F 51% 29.36 in 10.0 mi East 21.9 mph 28.8 mph N/A   Clear
5:56 PM 27.0 °F 16.1 °F 12.0 °F 53% 29.37 in 10.0 mi East 12.7 mph - N/A   Clear
6:56 PM 25.0 °F 13.1 °F 12.0 °F 58% 29.37 in 10.0 mi East 13.8 mph - N/A   Clear
7:56 PM 25.0 °F 14.2 °F 12.0 °F 58% 29.37 in 10.0 mi East 11.5 mph - N/A   Clear
8:56 PM 25.0 °F 13.1 °F 12.0 °F 58% 29.37 in 10.0 mi East 13.8 mph - N/A   Clear
9:56 PM 25.0 °F 13.1 °F 12.9 °F 60% 29.37 in 10.0 mi East 13.8 mph 24.2 mph N/A   Clear
10:56 PM 24.1 °F 11.5 °F 12.9 °F 62% 29.38 in 10.0 mi East 15.0 mph 23.0 mph N/A   Clear
11:56 PM 23.0 °F 11.1 °F 14.0 °F 68% 29.39 in 10.0 mi East 12.7 mph - N/A   Clear